Regional Weather Roundup
Issued by NWS Charleston, SC

Current Version | Previous Version | Graphics & Text | Print | Product List | Glossary On
Versions: 1 2 3 4 5 6 7 8 9 10 11 12 13 14 15 16 17 18 19 20 21 22 23 24 25 26 27 28 29 30 31 32 33 34 35 36 37 38 39 40 41 42 43 44 45 46 47 48 49 50
000 ASUS42 KCHS 202241 RWRCHS REGIONAL WEATHER ROUNDUP NATIONAL WEATHER SERVICE CHARLESTON SC 600 PM EDT WED SEP 20 2017 NOTE: "FAIR" INDICATES FEW OR NO CLOUDS BELOW 12,000 FEET WITH NO SIGNIFICANT WEATHER AND/OR OBSTRUCTIONS TO VISIBILITY. NOT ALL STATIONS ARE QUALITY CONTROLLED. USE DATA WITH CAUTION... ESPECIALLY DEWPOINT OBSERVATIONS. SCZ027-030-031-034>040-042>050-202300- ...SOUTHEAST SOUTH CAROLINA... CITY SKY/WX TMP DP RH WIND PRES REMARKS N CHARLESTON MOSUNNY 84 72 67 S9 29.96S WATERFRONT PRK N/A 84 73 69 S7 29.81S HX 90 JOHNS ISLAND FAIR 82 73 74 S9 29.97S PINOPOLIS N/A 88 70 55 CALM 29.89S HX 92 MONCKS CORNER FAIR 86 64 48 CALM 29.96S SUMMERVILLE FAIR 86 72 62 CALM 29.96S HX 92 BEAUFORT MCAS MOSUNNY 86 75 69 SE7 29.96S HX 95 BEAUFORT ARPT FAIR 82 72 69 S7 29.96S HILTON HEAD IS SUNNY 82 73 74 S8 29.98S WALTERBORO CLEAR 82 72 69 SE3 29.97S ALLENDALE NOT AVBL ...SOUTHERN MIDLANDS AND PEE DEE... CITY SKY/WX TMP DP RH WIND PRES REMARKS GEORGETOWN FAIR 86 72 62 S7 29.97S HX 92 KINGSTREE FAIR 86 66 51 CALM 29.96R ORANGEBURG SUNNY 90 63 40 NW3 29.95F HX 91 BARNWELL FAIR 90 70 51 CALM 29.96S HX 95 AIKEN FAIR 88 64 45 CALM 30.00S MANNING FAIR 86 68 54 CALM 29.96S COLUMBIA MOSUNNY 90 64 42 NE6 29.95S HX 91 SUMTER MOSUNNY 84 68 58 W8 29.94S FLORENCE MOSUNNY 84 71 65 N8 29.96S MYRTLE BEACH SUNNY 83 74 74 S14 29.97S N MYRTLE BEACH SUNNY 82 75 79 SW12 29.95F $$ GAZ063-065-086>088-099>101-113>116-118-119-134>141-150-202300- ...SOUTHEAST GEORGIA... CITY SKY/WX TMP DP RH WIND PRES REMARKS SAVANNAH ARPT PTSUNNY 85 71 63 S15 29.97R HX 90 HUNTER AAF PTSUNNY 73 70 88 S7 29.95S FORT STEWART PTSUNNY 85 71 60 CALM 29.93S HX 90 STATESBORO SUNNY 89 66 46 CALM 29.96R HX 91 SYLVANIA PTCLDY 88 75 65 CALM 29.97R HX 98 CLAXTON FAIR 88 75 64 CALM 29.96R HX 98 ...CSRA...CENTRAL AND FAR SOUTHEAST GEORGIA... CITY SKY/WX TMP DP RH WIND PRES REMARKS THOMSON SUNNY 88 66 47 E3 30.02R HX 91 AUGUSTA-BUSH SUNNY 91 69 48 SE5 29.95S HX 96 AUGUSTA-DANIEL SUNNY 92 65 40 N7 29.97S HX 94 SWAINSBORO FAIR 90 68 48 CALM 29.97S HX 93 VIDALIA MOSUNNY 84 75 74 SW5 29.97S HX 92 EASTMAN FAIR 83 63 50 CALM 29.99S HAZLEHURST FAIR 83 69 61 SW3 29.97R ALMA TSTM 78 74 87 W8 29.97R FOG WAYCROSS CLOUDY 86 69 55 CALM 29.96R HX 90 JESUP NOT AVBL BAXLEY FAIR 79 66 65 CALM 29.96S BRUNSWICK SUNNY 84 68 58 SE9 29.98R SAINT SIMONS SUNNY 85 73 67 SE12 29.96S HX 91 $$ SCZ027-028-034-036>038-045-046-048>050-GAZ119-141-202300- ...LAKE AND SUPPLEMENTAL COASTAL OBSERVATIONS... STATION/POSITION TIME TEMP WIND PRES WAVE SWELL AIR SEA DIR/SP/G HT/PER HT/PER/DIR (UTC) (F) (DEG/KT/KT) (MB) (FT/S) (FT/S/D) WINYAH BAY 2145 84 190/ 8 1015.0R LAKE MURRAY 2220 85 CALM / 2 1013.5 ACE BASIN NERRS 2145 84 150/ 2 1015.0S FORT PULASKI 2200 78 80 190/ 4/ 8 1015.3 SAPELO ISLAND 2200 84 CALM 1014.0 $$ ANZ835-935-AMZ111-154-330-350-352-354-370-450-454-472-202300- ...C-MAN AND BUOY OBSERVATIONS... STATION/POSITION TIME TEMP WIND PRES WAVE SWELL AIR SEA DIR/SP/G HT/PER HT/PER/DIR (UTC) (F) (DEG/KT/KT) (MB) (FT/S) (FT/S/D) BUOY 41004 2210 81 82 200/ 6/ 8 1014.7 BUOY 41008 2150 81 81 140/ 12/ 14 1014.6F 2/12 2/ 60/12 FOLLY BEACH CMAN 2200 81 190/ 10/ 11 1015.5F CAPERS NEARSHORE 2208 80 81 200/ 10/ 14 1014.5F FRIPP NEARSHORE 2208 81 180/ 10/ 14 1020.5R STATION/POSITION TIME TEMP WIND PRES WAVE SWELL AIR SEA DIR/SP/G HT/PER HT/PER/DIR (UTC) (F) (DEG/KT/KT) (MB) (FT/S) (FT/S/D) 5E ST. MARYS GA 2200 83 N/A 3/13 2/ 80/13 FRYING PAN BUOY 2210 81 82 220/ 10/ 14 1014.5 BUOY 41025 2150 78 76 240/ 8/ 10 1013.7R 4/11 3/ 60/11 CAPE LOOKOUT NC 2200 80 220/ 8/ 11 1013.8R BUOY 41002 2150 81 81 330/ 6/ 8 1015.5R 7/11 7/ 40/11 BUOY 41010 2210 85 50/ 8/ 10 1015.3 ST AUGUSTINE FL 2200 82 85 120/ 11/ 11 1015.5F $$

USA.gov is the U.S. government's official web portal to all federal, state and local government web resources and services.